Starlink 31891

operational
NORAD ID: 59854 Int'l Des: 2024-097 Owner: SPXS Country: US Constellation: starlink
LEOCIRCULAR

关于 Starlink 31891

正在加载描述...

实时位置

正在加载3D地球...

即将过境

高度历史

Altitude vs Time

uPlot chart will show altitude changes over time

两行轨道根数

1 59854U 24097V 26034.55781936 -.00001026 00000-0 -27778-4 0 9998
2 59854 42.9946 107.3815 0000838 238.7345 121.3425 15.27582152 96699
Epoch: Feb 3, 2026 • Age: 19 hours

当前状态

高度 486.7 km
速度 7.63 km/s
星下点 43.10°N, 67.67°W
发射日期 May 23, 2024
运行时间 1.7 years
类型 internet

技术详情

分类 Payload
质量 730.00 kg
干质量 700.00 kg
总质量 730.00 kg
长度 0.30 m
直径 4.10 m
跨度 29.00 m
形状 Box + pan
制造商 SPXS
平台类型 Starlink V2M
阶段状态 In Orbit
所有者/国家 SPXS/US

大型星座

Loading constellations...